Terminal Aerodrome Forecast
Issued by NWS Green Bay, WI

Home | Current Version | Previous Version | Graphics & Text | Print | Product List | Glossary On
Versions: 1 2 3 4 5 6 7 8 9 10 11 12 13 14 15 16 17 18 19 20 21 22 23 24 25
000
FTUS43 KGRB 180426 AAB
TAFGRB
TAF AMD
KGRB 180426Z 1804/1824 24003KT 2SM -DZ BR SCT006 BKN015
     FM180600 33004KT 1 1/2SM -DZ BR OVC006
     FM181000 35010KT 4SM -RA BR OVC008
     FM181400 35015G22KT P6SM OVC020
     FM181800 32016G24KT P6SM SCT025 OVC040=

USA.gov is the U.S. government's official web portal to all federal, state and local government web resources and services.